Wind_Speed
4 3 2 2 1 1 1 3 4 2 1 3 4 5 5 6 8 8 9 11 12 12 13 14 15 16 18 19 21 23 24 26 27 28 29 30 31 32 32 33 34 35 37 40 43 45 47 49 49
7 7 6 6 6 5 5 4 4 5 5 6 7 7 8 9 10 10 11 12 13 14 15 17 19 21 23 25 27 28 30 32 33 35 36 37 38 39 39 39 40 40 40 40 41 43 45 48 50
11 11 10 10 9 9 8 8 8 8 9 9 9 9 9 9 10 10 11 13 14 16 19 21 23 25 27 30 32 34 36 37 39 41 42 44 45 46 46 46 47 47 47 46 46 45 45 46 48
12 12 12 11 10 10 10 10 10 10 10 9 9 8 9 9 10 12 13 15 18 20 23 26 28 31 33 35 37 39 41 43 45 47 49 50 51 53 53 54 54 54 54 54 53 52 51 50 49
12 12 11 10 11 11 11 11 10 10 9 8 7 8 9 11 13 15 17 20 23 26 28 31 34 36 38 41 43 46 48 50 52 54 56 57 58 60 61 61 61 61 61 61 60 60 59 57 56
12 12 12 12 12 11 10 9 8 7 6 6 8 10 12 14 17 20 22 25 28 31 33 36 38 41 44 46 49 51 53 56 58 60 62 64 65 67 68 69 69 69 69 68 67 66 65 64 63
13 13 12 11 10 9 8 6 5 5 6 8 10 13 15 18 21 24 27 30 33 35 38 41 43 46 48 51 54 57 59 62 64 66 68 70 72 73 74 75 76 76 76 75 74 73 72 70 69
12 11 10 9 7 6 5 5 6 7 9 11 14 16 19 23 26 29 31 34 36 39 42 45 47 50 53 56 59 62 65 67 69 71 72 74 76 77 79 80 81 81 81 81 81 80 78 76 74
9 7 7 5 4 4 6 7 10 12 14 16 19 21 24 27 30 32 34 37 39 42 45 48 52 55 58 61 63 66 68 71 72 74 75 77 78 80 82 84 85 86 87 87 87 86 85 83 80
5 3 3 4 5 6 9 11 14 16 18 21 23 26 28 30 32 35 37 40 43 46 49 52 55 58 61 63 66 69 71 73 75 77 79 81 83 85 86 88 90 91 92 93 93 93 92 91 88
3 4 6 7 9 11 13 15 18 20 22 24 26 29 31 33 34 37 39 42 45 49 52 55 58 61 63 66 69 71 74 76 79 82 84 86 88 90 92 93 95 95 96 97 98 99 99 98 96
7 9 11 12 14 16 18 20 21 23 25 27 29 31 32 34 36 39 42 44 48 51 54 57 60 63 66 69 72 74 77 80 83 87 89 91 93 94 95 95 94 93 93 93 93 95 96 98 99
11 13 15 16 18 20 21 22 23 25 26 28 30 32 33 36 38 40 43 46 49 52 55 59 62 65 69 72 75 79 82 85 89 91 93 94 95 95 93 91 89 87 86 85 85 85 87 89 92
15 16 18 19 20 21 21 22 23 25 27 29 30 32 35 37 39 42 45 47 50 54 57 61 65 69 73 76 80 84 87 90 93 94 95 94 93 91 88 86 84 82 80 79 78 78 79 80 82
17 18 18 19 20 20 21 22 23 25 26 28 30 33 35 38 41 44 47 49 53 56 60 64 68 72 76 80 84 87 90 93 94 94 93 90 88 85 83 80 78 75 72 71 70 70 71 72 75
17 18 18 18 19 20 21 22 23 24 26 27 30 33 36 40 43 46 49 52 55 59 63 67 71 75 79 83 87 90 92 93 93 91 88 86 83 81 78 74 70 66 63 61 59 59 61 63 67
18 18 19 19 20 21 21 21 23 24 25 28 31 34 38 41 45 48 51 54 57 61 66 70 74 78 82 85 89 91 92 91 89 86 85 83 80 76 71 66 61 57 55 53 52 52 53 54 58
18 18 19 20 19 20 20 21 23 24 26 29 32 35 40 43 46 49 53 56 60 64 68 73 77 80 84 87 89 90 89 87 85 83 82 79 75 70 64 59 56 54 53 52 52 50 50 50 51
17 17 18 18 18 19 19 21 23 25 27 30 34 38 42 45 48 51 54 58 62 67 71 75 79 82 84 87 88 88 86 84 82 81 79 74 69 64 61 58 57 57 56 56 55 54 52 51 50
16 16 17 18 18 19 20 22 24 26 29 33 36 40 43 46 49 53 56 60 65 69 73 76 79 83 86 88 89 87 84 82 81 78 74 69 65 63 62 61 61 62 61 61 60 59 56 53 52
15 17 18 19 20 21 21 22 26 28 32 35 38 41 44 47 51 54 58 63 67 70 74 77 80 84 87 88 86 84 81 80 78 74 68 65 64 64 65 65 66 67 67 66 65 63 61 57 54
17 18 20 21 22 23 25 24 28 31 34 37 40 42 45 49 52 56 61 64 68 71 74 78 81 85 87 86 84 82 80 79 77 72 67 65 65 66 67 69 70 70 70 69 68 66 63 59 55
18 20 21 22 23 24 26 27 30 33 36 38 41 43 46 50 54 58 62 65 69 72 75 79 82 85 85 84 82 80 80 78 75 71 67 66 67 69 71 72 72 70 68 66 65 63 62 59 56
20 21 21 23 24 25 28 30 33 35 37 39 42 44 48 51 55 59 63 66 69 72 76 79 82 84 83 82 80 79 78 76 74 70 68 68 69 71 72 72 68 64 59 56 55 55 55 54 53
22 24 25 26 26 27 29 31 33 35 37 40 43 45 49 52 56 59 63 66 70 73 76 79 82 82 81 80 78 77 77 75 73 72 71 72 72 72 72 69 62 54 48 43 40 40 43 45 46
24 26 28 30 29 28 28 30 32 35 38 41 44 46 49 53 56 60 64 67 70 73 75 79 81 81 80 78 76 76 75 74 73 73 73 75 75 75 72 65 56 48 40 33 26 24 27 33 37
25 27 29 31 32 31 31 33 34 37 40 42 44 47 50 53 57 60 64 67 70 72 75 78 79 79 78 76 74 73 73 73 73 73 74 76 76 74 70 61 53 45 37 29 20 12 13 20 27
27 30 32 34 37 37 35 35 38 39 41 43 45 47 50 53 57 61 64 67 69 72 75 77 78 78 76 74 72 72 72 73 74 74 75 76 76 72 66 57 50 42 35 29 21 11 2 10 18
28 30 32 34 37 39 40 38 39 40 42 44 46 48 51 54 58 61 64 67 69 72 74 76 77 76 74 71 70 70 71 72 73 74 75 75 75 71 63 54 46 40 35 30 23 14 5 4 11
28 30 33 35 38 39 40 40 42 42 44 45 47 49 51 55 58 61 64 66 69 71 74 75 75 74 72 70 69 69 69 71 72 73 74 75 74 71 62 52 44 38 33 28 23 16 7 1 7
Wind_Direction
86 91 92 82 92 56 349 316 312 315 27 49 49 42 31 24 20 13 10 10 4 358 350 343 336 329 323 318 314 310 307 304 302 299 297 295 292 290 287 283 280 276 273 270 267 265 262 260 258
75 74 71 69 71 75 73 64 63 67 64 57 52 48 42 37 30 21 11 4 354 346 337 330 324 319 314 311 308 306 304 302 300 298 296 294 292 289 287 285 282 279 277 274 271 268 265 262 260
80 77 73 72 72 75 75 70 69 67 64 61 57 51 42 33 22 9 358 347 337 329 323 319 315 312 309 308 306 304 303 301 299 297 295 293 291 289 287 285 282 280 277 275 272 270 268 265 262
81 80 76 72 73 71 71 70 70 69 65 59 48 37 27 15 1 348 337 329 322 318 315 313 312 310 309 308 306 305 303 301 300 298 296 293 291 289 287 285 282 280 278 275 272 270 268 266 263
83 81 79 78 79 80 81 79 75 71 63 48 28 10 358 347 339 330 323 319 317 315 314 313 312 311 310 309 308 306 305 303 301 299 297 295 293 291 288 286 284 281 279 276 274 271 268 265 263
89 85 87 88 87 87 85 79 73 64 45 19 357 343 336 329 324 321 319 317 316 315 314 314 313 313 312 311 309 307 306 304 302 300 298 296 294 292 290 288 285 283 280 278 275 272 269 266 263
95 93 92 91 90 85 78 67 53 28 2 344 334 326 323 320 319 318 317 316 316 316 316 316 315 314 313 312 311 309 308 306 304 302 300 297 295 293 290 288 286 283 281 279 276 273 269 266 263
91 91 91 85 78 64 41 20 2 345 331 325 321 318 316 316 316 316 316 317 317 317 317 317 316 315 314 313 312 310 308 306 304 302 300 298 295 293 290 288 286 283 281 278 276 273 270 267 263
88 82 80 66 43 8 348 336 330 325 320 317 315 314 314 315 316 317 318 318 319 319 319 318 318 316 315 313 311 310 308 306 304 302 300 297 295 292 290 287 285 283 280 277 275 272 270 267 263
77 61 34 360 336 321 317 315 315 314 313 313 312 312 314 316 318 319 320 321 321 321 320 318 316 314 313 312 311 310 308 306 304 302 300 297 295 293 290 287 285 282 279 276 274 271 269 266 263
354 334 326 316 312 311 309 309 310 310 310 312 313 314 316 318 320 321 322 322 322 320 318 316 314 313 313 312 311 310 308 306 305 303 301 299 297 294 292 289 286 283 280 277 274 271 268 265 262
314 312 310 309 309 309 309 310 311 312 313 314 315 317 318 320 322 323 323 322 320 318 316 315 315 314 314 313 311 310 309 308 307 305 303 301 299 296 294 291 288 285 281 278 275 272 269 265 262
306 306 307 307 308 309 310 311 313 314 316 317 317 318 320 322 323 323 322 320 318 317 316 316 316 316 316 314 313 312 312 311 310 308 305 303 301 298 296 293 290 287 283 279 276 272 268 265 261
310 310 310 310 309 310 311 312 315 316 318 318 319 320 321 322 322 321 321 319 318 317 318 319 319 319 318 317 316 316 314 313 312 310 308 306 303 301 298 296 293 290 286 282 278 273 268 263 259
315 315 314 313 312 312 314 316 317 317 318 319 319 319 320 321 321 321 321 320 320 320 321 322 322 321 320 320 319 318 317 315 313 311 310 308 306 304 302 299 296 293 289 285 281 275 269 263 257
321 320 319 319 318 317 319 318 318 318 319 319 318 318 319 321 322 322 321 322 322 324 324 324 324 323 323 323 321 320 318 316 315 313 312 310 308 306 304 301 298 295 291 288 284 279 273 265 258
328 326 325 324 323 320 320 319 318 319 318 318 318 318 320 322 322 323 323 324 326 327 326 326 326 326 325 324 322 321 319 318 318 316 315 313 311 308 306 303 299 295 292 289 286 282 277 271 262
330 328 326 324 322 319 319 318 318 319 319 318 318 319 321 323 324 325 326 327 329 329 328 328 328 328 326 325 323 322 322 321 320 319 317 315 313 310 307 303 299 296 292 289 286 284 281 277 269
332 328 326 324 322 322 321 319 319 320 319 318 319 321 323 324 325 327 329 330 331 330 330 330 330 328 327 325 324 324 323 323 322 321 320 317 314 311 308 304 299 295 292 288 285 282 280 278 275
334 331 330 328 326 325 325 322 321 321 320 320 321 323 325 326 328 330 332 332 332 332 332 331 330 329 328 327 326 326 326 326 325 324 322 319 315 311 307 303 299 295 291 286 283 280 277 275 273
340 337 335 333 330 327 327 325 322 322 322 322 324 326 327 329 331 333 334 334 334 333 333 332 331 330 329 329 329 329 329 328 327 327 324 320 316 313 309 305 300 295 290 285 280 276 273 270 268
346 341 337 335 333 331 329 328 323 324 324 325 327 329 330 332 334 335 335 335 335 334 333 333 332 332 331 331 331 332 332 331 331 330 328 324 320 316 312 308 303 297 291 285 279 274 269 266 262
347 343 339 336 335 332 328 327 326 326 326 328 330 331 333 335 335 336 336 336 336 335 335 335 334 333 333 333 334 334 334 334 334 333 331 328 324 321 317 312 307 301 294 286 279 272 266 261 257
349 345 341 339 338 335 333 332 329 330 330 331 332 335 336 336 336 336 337 337 337 336 336 336 336 335 335 335 336 336 337 338 337 336 334 332 330 327 323 320 315 309 301 292 282 271 263 256 252
355 351 349 349 347 344 339 336 333 333 333 334 336 337 337 336 337 337 338 338 338 338 338 338 337 337 337 337 338 339 340 341 341 340 339 338 336 334 332 330 326 321 314 303 289 273 259 250 245
4 360 356 354 353 351 344 340 338 338 338 339 338 338 337 337 337 338 339 339 339 339 339 339 339 339 339 340 341 342 343 344 344 344 344 343 343 342 341 340 340 338 334 324 307 281 257 243 238
11 8 2 357 355 356 353 345 345 344 342 340 339 338 338 338 338 339 340 340 340 341 341 340 340 341 341 342 343 345 346 347 347 348 348 348 348 347 348 349 351 352 352 351 343 311 257 235 229
15 11 7 3 358 356 357 350 349 346 343 342 341 339 339 339 340 341 341 341 342 342 342 342 342 343 343 344 346 347 349 350 351 351 352 352 353 352 353 355 358 2 7 10 13 11 297 223 221
17 14 10 7 3 358 356 353 350 347 345 344 342 340 340 340 341 342 342 343 343 344 344 344 344 345 345 346 348 349 351 352 354 354 355 356 357 356 357 358 2 6 11 15 18 24 37 198 213
16 13 11 9 7 2 359 355 351 349 347 345 343 342 341 341 342 343 343 344 345 345 345 346 346 346 347 348 350 351 353 354 356 357 358 359 360 0 360 1 2 6 11 15 18 22 30 141 209
Height
5866 5867 5868 5870 5870 5870 5869 5871 5871 5871 5871 5871 5871 5870 5870 5870 5870 5871 5869 5866 5866 5865 5864 5863 5861 5860 5859 5857 5856 5854 5852 5850 5849 5847 5845 5843 5842 5841 5840 5838 5837 5837 5836 5835 5835 5835 5836 5837 5838
5867 5868 5870 5871 5870 5870 5871 5871 5872 5872 5872 5871 5871 5871 5870 5869 5869 5868 5867 5866 5865 5863 5862 5861 5859 5857 5855 5854 5852 5849 5847 5845 5843 5840 5838 5836 5834 5833 5832 5830 5829 5828 5827 5827 5826 5826 5826 5827 5827
5870 5871 5872 5871 5871 5871 5872 5872 5872 5872 5872 5871 5871 5871 5870 5869 5868 5867 5866 5865 5863 5862 5860 5858 5856 5854 5851 5849 5847 5844 5841 5839 5836 5833 5830 5827 5825 5823 5821 5820 5818 5817 5817 5816 5816 5816 5816 5816 5817
5872 5873 5873 5872 5872 5872 5872 5872 5872 5872 5872 5871 5871 5870 5869 5868 5867 5866 5864 5863 5861 5859 5857 5854 5852 5849 5846 5843 5840 5837 5834 5830 5827 5824 5821 5817 5814 5811 5809 5807 5805 5804 5804 5803 5803 5803 5804 5804 5805
5874 5874 5874 5873 5873 5873 5873 5873 5873 5873 5872 5871 5870 5869 5867 5867 5865 5864 5862 5860 5858 5855 5852 5849 5846 5842 5839 5836 5832 5828 5824 5820 5816 5812 5809 5805 5801 5798 5795 5792 5790 5789 5788 5788 5788 5788 5789 5790 5792
5876 5875 5875 5875 5875 5875 5875 5874 5874 5873 5872 5871 5870 5868 5866 5865 5863 5861 5859 5856 5853 5850 5847 5843 5839 5835 5831 5827 5823 5818 5814 5809 5805 5800 5795 5790 5786 5782 5778 5775 5773 5771 5770 5769 5769 5770 5771 5773 5775
5878 5877 5877 5876 5877 5876 5876 5875 5874 5873 5872 5871 5869 5867 5865 5863 5861 5858 5855 5852 5849 5845 5841 5837 5832 5828 5823 5818 5812 5807 5802 5796 5790 5785 5779 5774 5769 5764 5760 5756 5753 5751 5749 5748 5748 5749 5751 5753 5756
5880 5880 5878 5878 5878 5877 5876 5875 5873 5872 5871 5870 5868 5866 5863 5861 5858 5855 5852 5848 5844 5839 5835 5830 5825 5819 5813 5807 5801 5795 5789 5783 5776 5770 5764 5758 5751 5746 5740 5736 5732 5729 5726 5725 5724 5725 5727 5730 5733
5882 5882 5880 5879 5878 5878 5876 5874 5873 5871 5869 5867 5865 5863 5860 5857 5854 5851 5847 5843 5838 5833 5828 5822 5816 5810 5803 5797 5790 5783 5776 5768 5761 5754 5747 5740 5733 5726 5720 5714 5709 5704 5701 5699 5698 5698 5701 5704 5708
5883 5882 5881 5880 5879 5878 5876 5874 5872 5870 5868 5865 5863 5860 5857 5854 5850 5846 5842 5837 5832 5826 5820 5814 5808 5801 5794 5787 5779 5771 5762 5754 5745 5736 5728 5719 5711 5703 5696 5689 5683 5678 5674 5671 5669 5670 5672 5676 5681
5884 5883 5881 5880 5879 5877 5875 5873 5871 5869 5866 5863 5860 5856 5853 5849 5845 5841 5836 5831 5825 5819 5813 5806 5799 5792 5784 5775 5767 5757 5748 5738 5727 5717 5707 5696 5686 5677 5668 5660 5654 5648 5643 5639 5637 5637 5639 5643 5649
5884 5882 5881 5879 5877 5875 5873 5871 5868 5866 5863 5860 5856 5852 5849 5845 5840 5836 5831 5825 5819 5812 5805 5798 5790 5781 5772 5762 5752 5741 5730 5719 5707 5695 5683 5671 5660 5649 5638 5629 5622 5616 5611 5607 5604 5603 5605 5608 5614
5882 5880 5879 5877 5875 5872 5870 5868 5865 5862 5859 5855 5852 5848 5844 5840 5835 5830 5825 5819 5812 5805 5797 5788 5779 5769 5759 5747 5735 5723 5710 5697 5683 5670 5656 5643 5631 5620 5609 5599 5590 5583 5578 5574 5573 5571 5572 5575 5579
5881 5879 5877 5875 5872 5870 5867 5865 5862 5859 5855 5851 5847 5843 5839 5835 5830 5825 5819 5812 5805 5796 5787 5777 5767 5756 5744 5731 5718 5704 5689 5675 5659 5644 5630 5616 5603 5591 5580 5570 5562 5554 5548 5544 5542 5541 5542 5544 5547
5878 5877 5875 5872 5869 5867 5865 5862 5859 5856 5852 5848 5844 5839 5835 5830 5825 5819 5812 5804 5796 5786 5777 5766 5754 5741 5728 5713 5699 5683 5668 5652 5636 5621 5605 5591 5577 5565 5554 5544 5536 5528 5522 5517 5514 5513 5513 5515 5518
5876 5874 5872 5870 5866 5864 5863 5860 5856 5852 5848 5844 5840 5835 5830 5825 5819 5812 5804 5796 5786 5776 5765 5753 5740 5726 5712 5696 5680 5664 5647 5630 5614 5598 5582 5568 5554 5542 5531 5521 5513 5505 5500 5495 5491 5489 5488 5489 5491
5874 5871 5869 5867 5863 5861 5859 5856 5853 5849 5845 5841 5836 5831 5825 5819 5812 5805 5796 5787 5776 5765 5754 5741 5726 5712 5696 5680 5663 5645 5627 5610 5592 5576 5561 5547 5533 5521 5510 5501 5493 5486 5481 5476 5472 5469 5467 5466 5467
5872 5869 5866 5864 5861 5859 5856 5853 5850 5846 5841 5837 5832 5826 5820 5813 5806 5797 5787 5777 5766 5755 5742 5728 5713 5698 5682 5665 5648 5629 5610 5591 5574 5558 5542 5527 5513 5501 5491 5483 5476 5469 5464 5459 5455 5451 5449 5447 5446
5871 5868 5865 5863 5860 5857 5854 5850 5846 5842 5837 5833 5827 5821 5815 5807 5798 5789 5779 5768 5756 5744 5730 5715 5700 5685 5669 5652 5634 5615 5597 5578 5560 5542 5524 5509 5495 5484 5474 5466 5459 5451 5446 5441 5436 5433 5432 5429 5427
5870 5867 5864 5861 5857 5854 5851 5847 5843 5838 5833 5828 5822 5816 5809 5800 5790 5781 5770 5759 5746 5733 5719 5704 5688 5672 5654 5635 5616 5598 5579 5561 5544 5526 5509 5493 5480 5468 5458 5449 5440 5432 5425 5420 5415 5412 5412 5411 5409
5868 5865 5862 5858 5855 5851 5848 5845 5839 5834 5829 5823 5817 5810 5802 5792 5783 5773 5761 5750 5737 5723 5708 5693 5677 5658 5639 5620 5601 5584 5567 5548 5531 5514 5497 5481 5466 5453 5440 5429 5418 5409 5401 5395 5391 5388 5388 5391 5391
5867 5863 5859 5856 5852 5848 5845 5841 5835 5830 5824 5817 5811 5803 5795 5785 5775 5765 5754 5741 5728 5713 5698 5682 5664 5645 5625 5606 5587 5569 5552 5535 5517 5499 5483 5467 5451 5436 5422 5408 5394 5381 5372 5365 5362 5361 5362 5367 5371
5865 5862 5858 5854 5849 5846 5841 5837 5832 5825 5818 5812 5805 5796 5788 5778 5768 5757 5746 5733 5719 5704 5688 5670 5652 5633 5613 5593 5575 5557 5539 5521 5503 5486 5470 5454 5438 5420 5402 5385 5367 5352 5341 5333 5330 5331 5334 5340 5348
5864 5861 5857 5852 5848 5843 5837 5831 5826 5819 5813 5806 5799 5790 5781 5771 5761 5750 5738 5724 5710 5694 5677 5660 5641 5622 5602 5583 5565 5547 5529 5510 5492 5475 5459 5442 5424 5404 5382 5361 5341 5324 5312 5304 5301 5302 5308 5315 5325
5862 5859 5854 5849 5845 5839 5833 5827 5822 5815 5807 5800 5792 5784 5775 5765 5755 5743 5730 5717 5701 5685 5668 5650 5632 5613 5594 5574 5556 5537 5518 5499 5481 5463 5446 5428 5408 5387 5364 5341 5321 5304 5291 5282 5278 5280 5285 5295 5306
5860 5856 5851 5846 5841 5837 5830 5824 5819 5810 5802 5794 5787 5779 5769 5759 5748 5736 5723 5709 5693 5677 5660 5642 5624 5605 5586 5567 5548 5529 5510 5491 5472 5454 5435 5415 5393 5371 5348 5326 5307 5291 5279 5270 5266 5266 5271 5280 5291
5859 5854 5849 5843 5838 5833 5826 5819 5812 5805 5797 5790 5782 5773 5764 5753 5742 5730 5716 5701 5686 5669 5652 5635 5616 5597 5578 5559 5541 5522 5504 5485 5467 5447 5427 5406 5384 5361 5339 5319 5302 5288 5277 5268 5263 5262 5266 5274 5283
5858 5853 5847 5840 5833 5827 5823 5815 5809 5800 5793 5786 5777 5768 5758 5747 5736 5723 5709 5694 5678 5662 5645 5627 5608 5589 5570 5552 5534 5517 5499 5480 5461 5442 5422 5401 5379 5357 5336 5318 5304 5291 5281 5273 5268 5266 5268 5273 5280
5857 5852 5845 5840 5832 5825 5818 5815 5806 5798 5789 5781 5772 5762 5752 5741 5729 5716 5702 5687 5671 5655 5638 5620 5601 5583 5565 5547 5530 5513 5495 5477 5458 5439 5419 5398 5376 5355 5336 5320 5307 5296 5287 5280 5276 5273 5273 5275 5280
5855 5850 5844 5839 5832 5824 5817 5813 5802 5794 5785 5776 5767 5757 5746 5735 5723 5710 5695 5680 5665 5649 5632 5614 5596 5578 5560 5543 5526 5509 5492 5475 5457 5438 5418 5397 5376 5356 5337 5322 5311 5301 5294 5287 5283 5280 5278 5279 5281